VA3XLC Weather Reports


time (UTC)temp
C
wind
direction
speed
KPH
gust
KPH
rain 1hr
cm
rain 24hr
cm
rain mn
cm
humidity
%
barometer
mb
20260505082318 16 259 8.0 11.3 0.00 0.00 0.00 71 967.6
20260505081257 16 267 4.8 9.7 0.00 0.00 0.00 70 967.4
20260505080757 16 276 12.9 20.9 0.00 0.00 0.00 70 967.4
20260505080256 16 266 9.7 12.9 0.00 0.00 0.00 70 967.4
20260505075756 16 265 8.0 12.9 0.00 0.00 0.00 71 967.3
20260505074735 16 258 8.0 17.7 0.00 0.00 0.00 71 967.3
20260505072109 16 260 9.7 14.5 0.00 0.00 0.00 69 967.4
20260505071609 16 271 11.3 17.7 0.00 0.00 0.00 68 967.4
20260505071108 16 263 6.4 11.3 0.00 0.00 0.00 68 967.5
20260505070608 16 273 11.3 20.9 0.00 0.00 0.00 68 967.5
20260505070108 16 261 9.7 14.5 0.00 0.00 0.00 69 967.4
20260505065047 15 252 6.4 12.9 0.00 0.00 0.00 71 967.6
20260505064546 15 255 6.4 11.3 0.00 0.00 0.00 71 967.7
20260505064046 15 267 3.2 6.4 0.00 0.00 0.00 72 967.8
20260505063025 15 245 8.0 14.5 0.00 0.00 0.00 72 968.0
20260505062524 15 242 8.0 14.5 0.00 0.00 0.00 71 968.1
20260505062023 15 238 6.4 12.9 0.00 0.00 0.00 72 968.1
20260505061002 15 242 8.0 12.9 0.00 0.00 0.00 72 968.2
20260505055419 15 261 8.0 11.3 0.00 0.00 0.00 71 968.4
20260505054918 15 259 3.2 9.7 0.00 0.00 0.00 71 968.4
20260505054418 15 256 11.3 19.3 0.00 0.00 0.00 71 968.5
20260505053918 15 257 8.0 17.7 0.00 0.00 0.00 71 968.5
20260505053418 15 254 11.3 17.7 0.00 0.00 0.00 71 968.6
20260505052917 15 268 9.7 20.9 0.00 0.00 0.00 71 968.6
20260505052417 15 220 4.8 6.4 0.00 0.00 0.00 71 968.5
20260505051917 15 248 12.9 20.9 0.00 0.00 0.00 70 968.5
20260505051416 15 242 8.0 11.3 0.00 0.00 0.00 70 968.6
20260505050354 15 224 6.4 11.3 0.00 0.00 0.00 71 968.6
20260505040749 16 264 12.9 22.5 0.00 0.00 0.00 68 968.5
20260505040246 16 251 11.3 17.7 0.00 0.00 0.00 68 968.5
20260505035746 16 267 9.7 12.9 0.00 0.00 0.00 69 968.5
20260505035246 16 256 8.0 12.9 0.00 0.00 0.00 70 968.6
20260505034746 16 250 6.4 9.7 0.00 0.00 0.00 70 968.6
20260505034246 16 241 6.4 11.3 0.00 0.00 0.00 70 968.6
20260505033745 16 256 11.3 17.7 0.00 0.00 0.00 69 968.6
20260505033245 16 258 11.3 20.9 0.00 0.00 0.00 69 968.7
20260505032744 16 261 9.7 16.1 0.00 0.00 0.00 69 968.8
20260505032244 16 260 9.7 19.3 0.00 0.00 0.00 68 968.8
20260505031744 16 253 9.7 16.1 0.00 0.00 0.00 67 969.0
20260505030722 17 251 12.9 19.3 0.00 0.00 0.00 65 969.1
20260505030222 16 254 11.3 17.7 0.00 0.00 0.00 66 969.2
20260505025722 16 266 11.3 19.3 0.00 0.00 0.00 68 969.2
20260505024700 16 265 14.5 19.3 0.00 0.00 0.00 71 969.0
20260505024159 15 262 8.0 16.1 0.00 0.00 0.00 73 969.1
20260505023658 15 267 14.5 22.5 0.00 0.00 0.00 75 969.2
20260505022636 16 259 4.8 9.7 0.00 0.00 0.00 77 969.6
20260505022136 16 282 11.3 16.1 0.00 0.00 0.00 73 969.6
20260505021113 16 262 16.1 20.9 0.00 0.00 0.00 69 969.3
20260505020613 16 257 11.3 19.3 0.00 0.00 0.00 69 969.2
20260505015552 16 265 12.9 20.9 0.00 0.00 0.00 65 969.0
20260505015050 16 265 16.1 20.9 0.00 0.00 0.00 66 968.9
20260505014550 16 253 4.8 9.7 0.00 0.00 0.00 66 968.8
20260505014050 16 256 8.0 19.3 0.00 0.00 0.00 67 968.5
20260505013550 16 227 6.4 12.9 0.00 0.00 0.00 67 968.2
20260505013049 16 238 6.4 14.5 0.00 0.00 0.00 67 968.3
20260505012549 16 236 4.8 9.7 0.00 0.00 0.00 67 968.2
20260505012048 16 209 4.8 11.3 0.00 0.00 0.00 67 968.2
20260505011548 16 205 6.4 11.3 0.00 0.00 0.00 66 968.2
20260505011047 16 199 4.8 11.3 0.00 0.00 0.00 66 968.2
20260505010547 16 222 6.4 14.5 0.00 0.00 0.00 65 968.1
20260505010047 17 226 4.8 9.7 0.00 0.00 0.00 64 968.1
20260505005547 17 225 6.4 9.7 0.00 0.00 0.00 63 968.1
20260505005046 17 263 4.8 12.9 0.00 0.00 0.00 61 968.1
20260505004546 17 217 4.8 9.7 0.00 0.00 0.00 60 968.0
20260505004046 17 253 3.2 6.4 0.00 0.00 0.00 59 968.0
20260505003545 18 228 3.2 6.4 0.00 0.00 0.00 57 968.1
20260505003045 18 235 6.4 11.3 0.00 0.00 0.00 56 968.1
20260505002544 18 212 3.2 6.4 0.00 0.00 0.00 55 968.1
20260505002044 18 229 3.2 6.4 0.00 0.00 0.00 54 968.1
20260505001543 18 247 6.4 12.9 0.00 0.00 0.00 54 968.0
20260505001043 19 233 4.8 8.0 0.00 0.00 0.00 53 968.1
20260505000542 19 260 11.3 17.7 0.00 0.00 0.00 52 968.1
20260505000042 19 206 3.2 6.4 0.00 0.00 0.00 52 968.2
20260504235541 20 223 6.4 11.3 0.00 0.00 0.00 51 968.1
20260504235041 20 247 4.8 9.7 0.00 0.00 0.00 50 968.1
20260504234020 20 265 9.7 16.1 0.00 0.00 0.00 49 968.1
20260504233519 20 236 8.0 12.9 0.00 0.00 0.00 47 968.1
20260504233019 20 257 8.0 14.5 0.00 0.00 0.00 47 968.2
20260504231958 20 247 11.3 17.7 0.00 0.00 0.00 46 968.2
20260504231457 20 249 16.1 22.5 0.00 0.00 0.00 46 968.3
20260504230956 20 229 4.8 12.9 0.00 0.00 0.00 46 968.4
20260504230456 20 258 16.1 24.1 0.00 0.00 0.00 45 968.4
20260504225956 20 246 6.4 11.3 0.00 0.00 0.00 45 968.6
20260504225456 20 268 8.0 16.1 0.00 0.00 0.00 45 968.6
20260504224956 20 249 11.3 22.5 0.00 0.00 0.00 44 968.7
20260504224455 20 257 12.9 24.1 0.00 0.00 0.00 44 968.7
20260504223955 20 265 8.0 14.5 0.00 0.00 0.00 43 968.7
20260504222933 20 259 12.9 30.6 0.00 0.00 0.00 42 968.9
20260504222433 20 257 11.3 19.3 0.00 0.00 0.00 41 968.9
20260504221933 20 244 4.8 12.9 0.00 0.00 0.00 41 969.0
20260504221432 20 225 8.0 20.9 0.00 0.00 0.00 39 969.0
20260504220932 20 250 11.3 20.9 0.00 0.00 0.00 38 969.1
20260504215909 20 249 9.7 20.9 0.00 0.00 0.00 37 969.1
20260504215409 20 247 12.9 22.5 0.00 0.00 0.00 36 969.0
20260504214909 21 270 11.3 25.7 0.00 0.00 0.00 36 969.1
20260504214408 20 245 8.0 17.7 0.00 0.00 0.00 36 969.0
20260504213908 20 258 16.1 22.5 0.00 0.00 0.00 36 969.0
20260504213408 20 261 17.7 24.1 0.00 0.00 0.00 36 969.0
20260504212908 21 260 17.7 29.0 0.00 0.00 0.00 36 969.0
20260504211846 21 257 12.9 27.4 0.00 0.00 0.00 37 968.9
20260504211346 21 240 11.3 22.5 0.00 0.00 0.00 37 968.9
20260504210846 21 257 9.7 17.7 0.00 0.00 0.00 37 968.9
20260504210346 21 257 14.5 20.9 0.00 0.00 0.00 38 968.9
20260504205846 21 253 16.1 35.4 0.00 0.00 0.00 38 968.9
20260504205345 21 247 6.4 17.7 0.00 0.00 0.00 39 968.9
20260504204844 21 239 9.7 12.9 0.00 0.00 0.00 39 969.0
20260504204344 21 264 12.9 19.3 0.00 0.00 0.00 40 968.9
20260504203844 21 259 11.3 17.7 0.00 0.00 0.00 41 969.0
20260504203344 21 255 11.3 17.7 0.00 0.00 0.00 42 969.0
20260504202844 21 253 9.7 20.9 0.00 0.00 0.00 41 969.0
20260504202343 20 252 9.7 19.3 0.00 0.00 0.00 43 969.1
20260504201842 20 257 14.5 24.1 0.00 0.00 0.00 43 969.1
20260504201341 20 252 14.5 24.1 0.00 0.00 0.00 44 969.2
20260504200840 20 250 14.5 30.6 0.00 0.00 0.00 44 969.3
20260504195818 20 256 8.0 19.3 0.00 0.00 0.00 45 969.2
20260504194756 20 258 9.7 19.3 0.00 0.00 0.00 45 969.2
20260504194257 20 257 11.3 19.3 0.00 0.00 0.00 45 969.4
20260504193756 20 260 11.3 19.3 0.00 0.00 0.00 45 969.5
20260504193256 20 253 11.3 17.7 0.00 0.00 0.00 46 969.6
20260504192756 19 233 8.0 12.9 0.00 0.00 0.00 47 969.7
20260504192255 19 254 12.9 20.9 0.00 0.00 0.00 47 969.8
20260504190712 19 241 8.0 14.5 0.00 0.00 0.00 48 970.0
20260504190212 19 238 9.7 17.7 0.00 0.00 0.00 48 969.9
20260504185151 19 214 9.7 14.5 0.00 0.00 0.00 48 970.0
20260504184649 19 241 6.4 16.1 0.00 0.00 0.00 49 970.1
20260504184149 19 240 8.0 16.1 0.00 0.00 0.00 49 970.2
20260504183649 19 249 9.7 16.1 0.00 0.00 0.00 50 970.2
20260504183148 19 216 9.7 17.7 0.00 0.00 0.00 50 970.2
20260504182648 19 256 9.7 14.5 0.00 0.00 0.00 50 970.2
20260504182148 18 246 11.3 17.7 0.00 0.00 0.00 51 970.2
20260504181127 19 258 11.3 19.3 0.00 0.00 0.00 49 970.4
20260504180626 18 264 9.7 16.1 0.00 0.00 0.00 50 970.4
20260504180125 18 235 4.8 9.7 0.00 0.00 0.00 52 970.5
20260504175625 18 237 11.3 19.3 0.00 0.00 0.00 52 970.6
20260504175125 18 262 8.0 11.3 0.00 0.00 0.00 54 970.6
20260504174625 17 260 12.9 20.9 0.00 0.00 0.00 55 970.7
20260504174124 17 236 9.7 16.1 0.00 0.00 0.00 56 970.8
20260504173623 18 250 9.7 17.7 0.00 0.00 0.00 55 970.9
20260504173123 18 229 6.4 12.9 0.00 0.00 0.00 54 970.8
20260504172623 18 226 4.8 8.0 0.00 0.00 0.00 55 970.9
20260504172123 18 263 11.3 16.1 0.00 0.00 0.00 54 970.9
20260504171623 18 257 9.7 19.3 0.00 0.00 0.00 54 971.0
20260504171122 18 212 6.4 11.3 0.00 0.00 0.00 55 971.0
20260504170622 18 252 12.9 20.9 0.00 0.00 0.00 55 971.0
20260504170122 18 257 11.3 20.9 0.00 0.00 0.00 55 971.0
20260504150930 16 218 4.8 8.0 0.00 0.00 0.00 57 972.1
20260504150430 16 248 9.7 19.3 0.00 0.00 0.00 56 972.1
20260504140906 14 269 11.3 19.3 0.00 0.00 0.00 60 972.4
20260504140406 14 251 8.0 9.7 0.00 0.00 0.00 61 972.5
20260504120215 10 253 11.3 17.7 0.00 0.00 0.00 72 973.1
20260504110629 7 227 4.8 6.4 0.00 0.00 0.00 75 973.2
20260504110129 7 215 3.2 4.8 0.00 0.00 0.00 75 973.2
20260504100442 8 222 4.8 6.4 0.00 0.00 0.00 72 973.2